| time (UTC) | temp F | wind direction | speed knots | gust knots | rain 1hr in | rain 24hr in | rain mn in | humidity % | barometer mb |
| 20260504214527 | 66 | 281 | 6.1 | 11.3 | 0.00 | 0.00 | 0.00 | 43 | 1005.4 |
| 20260504213025 | 66 | 256 | 7.0 | 13.0 | 0.00 | 0.00 | 0.00 | 43 | 1005.6 |
| 20260504211524 | 66 | 229 | 6.1 | 9.6 | 0.00 | 0.00 | 0.00 | 44 | 1005.4 |
| 20260504210034 | 66 | 259 | 5.2 | 13.0 | 0.00 | 0.00 | 0.00 | 43 | 1005.5 |
| 20260504204531 | 66 | 236 | 6.1 | 12.2 | 0.00 | 0.00 | 0.00 | 43 | 1005.5 |
| 20260504203025 | 65 | 266 | 6.1 | 15.6 | 0.00 | 0.00 | 0.00 | 47 | 1005.5 |
| 20260504201519 | 65 | 270 | 7.0 | 13.0 | 0.00 | 0.00 | 0.00 | 47 | 1005.4 |
| 20260504200018 | 65 | 240 | 8.7 | 16.5 | 0.00 | 0.00 | 0.00 | 44 | 1005.5 |
| 20260504194600 | 65 | 279 | 7.8 | 16.5 | 0.00 | 0.00 | 0.00 | 46 | 1005.7 |
| 20260504193058 | 64 | 291 | 9.6 | 17.4 | 0.00 | 0.00 | 0.00 | 46 | 1005.6 |
| 20260504191554 | 64 | 233 | 9.6 | 15.6 | 0.00 | 0.00 | 0.00 | 46 | 1005.6 |
| 20260504190053 | 63 | 258 | 6.1 | 13.9 | 0.00 | 0.00 | 0.00 | 52 | 1005.7 |
| 20260504184547 | 63 | 276 | 9.6 | 16.5 | 0.00 | 0.00 | 0.00 | 47 | 1005.9 |
| 20260504183043 | 61 | 269 | 7.0 | 11.3 | 0.00 | 0.00 | 0.00 | 53 | 1005.8 |
| 20260504181541 | 61 | 289 | 3.5 | 14.8 | 0.00 | 0.00 | 0.00 | 53 | 1006.1 |
| 20260504180040 | 60 | 264 | 7.8 | 13.9 | 0.00 | 0.00 | 0.00 | 54 | 1006.2 |
| 20260504174540 | 60 | 282 | 9.6 | 15.6 | 0.00 | 0.00 | 0.00 | 52 | 1006.1 |
| 20260504173040 | 60 | 276 | 6.1 | 11.3 | 0.00 | 0.00 | 0.00 | 57 | 1006.1 |
| 20260504171538 | 60 | 276 | 9.6 | 16.5 | 0.00 | 0.00 | 0.00 | 52 | 1006.2 |
| 20260504081549 | 39 | 355 | 0.0 | 0.9 | 0.00 | 0.00 | 0.00 | 84 | 1009.1 |
| 20260504044527 | 38 | 4 | 0.9 | 0.9 | 0.00 | 0.00 | 0.00 | 80 | 1008.8 |
| 20260504043022 | 39 | 2 | 0.0 | 0.9 | 0.00 | 0.00 | 0.00 | 79 | 1008.8 |
| 20260504041535 | 40 | 2 | 0.0 | 0.9 | 0.00 | 0.00 | 0.00 | 77 | 1008.8 |
| 20260504040021 | 39 | 2 | 0.0 | 0.9 | 0.00 | 0.00 | 0.00 | 75 | 1008.6 |
| 20260504034515 | 40 | 2 | 0.0 | 0.9 | 0.00 | 0.05 | 0.00 | 74 | 1008.6 |
| 20260504033012 | 41 | 2 | 0.0 | 0.9 | 0.00 | 0.05 | 0.00 | 74 | 1008.6 |
| 20260504031512 | 43 | 279 | 0.9 | 2.6 | 0.00 | 0.05 | 0.00 | 76 | 1008.5 |
| 20260504030010 | 43 | 279 | 2.6 | 4.3 | 0.00 | 0.05 | 0.00 | 73 | 1008.5 |
| 20260504024553 | 42 | 289 | 0.9 | 3.5 | 0.00 | 0.09 | 0.00 | 72 | 1008.6 |
| 20260504023049 | 42 | 1 | 0.0 | 1.7 | 0.00 | 0.09 | 0.00 | 68 | 1008.6 |
| 20260504021552 | 42 | 354 | 0.0 | 2.6 | 0.00 | 0.09 | 0.00 | 67 | 1008.7 |
| 20260504020053 | 43 | 354 | 0.0 | 1.7 | 0.00 | 0.09 | 0.00 | 65 | 1008.5 |
| 20260504014547 | 44 | 287 | 0.0 | 3.5 | 0.00 | 0.09 | 0.00 | 63 | 1008.4 |
| 20260504013102 | 45 | 272 | 2.6 | 6.1 | 0.00 | 0.09 | 0.00 | 64 | 1008.6 |
| 20260504011546 | 45 | 285 | 1.7 | 5.2 | 0.00 | 0.09 | 0.00 | 61 | 1008.5 |
| 20260504010045 | 45 | 41 | 1.7 | 4.3 | 0.00 | 0.09 | 0.00 | 60 | 1008.2 |
| 20260504004545 | 45 | 27 | 0.9 | 4.3 | 0.00 | 0.09 | 0.00 | 59 | 1007.9 |
| 20260504003044 | 46 | 297 | 0.9 | 6.1 | 0.00 | 0.09 | 0.00 | 58 | 1007.8 |
| 20260504001547 | 46 | 323 | 2.6 | 7.0 | 0.00 | 0.09 | 0.00 | 57 | 1007.7 |
| 20260504000044 | 47 | 300 | 2.6 | 7.8 | 0.00 | 0.09 | 0.00 | 54 | 1007.4 |
| 20260503234544 | 47 | 276 | 0.9 | 5.2 | 0.00 | 0.09 | 0.00 | 55 | 1007.4 |
| 20260503233044 | 47 | 300 | 0.9 | 4.3 | 0.00 | 0.09 | 0.00 | 54 | 1007.3 |
| 20260503231543 | 47 | 312 | 3.5 | 7.0 | 0.00 | 0.09 | 0.00 | 53 | 1007.4 |
| 20260503230043 | 48 | 237 | 0.9 | 8.7 | 0.00 | 0.09 | 0.00 | 52 | 1007.2 |
| 20260503224540 | 48 | 271 | 1.7 | 5.2 | 0.00 | 0.10 | 0.00 | 53 | 1007.2 |
| 20260503223039 | 48 | 304 | 0.9 | 5.2 | 0.00 | 0.10 | 0.00 | 54 | 1007.1 |
| 20260503221537 | 49 | 308 | 2.6 | 8.7 | 0.00 | 0.10 | 0.00 | 56 | 1006.9 |
| 20260503220037 | 49 | 307 | 3.5 | 7.0 | 0.00 | 0.10 | 0.00 | 53 | 1006.7 |